User: anonymous   Login
Location: Unspecified
(0.0000°N, 0.0000°E)
Time: 11:32:59
(UTC+00:00)
Language:

DX 1 - Orbit

View from above orbital plane
View from above orbital plane
View from above satellite
View from above satellite

Ground track
Ground track

The orbit data is extracted from the following two-line orbital elements,

1 40071U 14037C   21016.14629695  .00000140  00000-0  25439-4 0  9991
2 40071  98.4575 212.3758 0008394 167.6404 192.5003 14.81441906352741
Epoch (UTC): 16 January 2021 03:30:40
Eccentricity: 0.0008394
inclination: 98.4575°
perigee height: 619 km
apogee height: 630 km
right ascension of ascending node: 212.3758°
argument of perigee: 167.6404°
revolutions per day: 14.81441906
mean anomaly at epoch: 192.5003°
orbit number at epoch: 35274

The dashed part of the orbit path shows where the satellite is in the earth's shadow,  

DLR